Location: Beadle
(51.4667°N, 109.0000°W)
Time: 09:26:04
(UTC+00:00)

deb Explorer IX - Pass Details

Date: 05 June 2022
Orbit: 535 x 1068 km, 38.8° (Epoch: 04 July)

Event Time Altitude Azimuth Distance (km) Brightness Sun altitude
Rises 17:26:12 0° 254° (WSW) 3,839 ? 54.4°
Reaches altitude 10° 17:29:21 10° 243° (WSW) 2,896 ? 54.7°
Maximum altitude 17:35:08 27° 189° (S) 1,890 ? 55.3°
Drops below altitude 10° 17:40:45 10° 134° (SE) 2,792 ? 55.9°
Sets 17:43:43 0° 123° (ESE) 3,678 ? 56.2°
